Location: Losili
(4.4086°N, 32.7049°E)
Time: 16:15:59
(UTC+00:00)

Cosmos 2227 Rocket - Pass Details

Date: 18 September 2019
Orbit: 837 x 847 km, 71.0° (Epoch: 16 October)

Event Time Altitude Azimuth Distance (km) Brightness Sun altitude
Rises 17:07:27 0° 200° (SSW) 3,382 5.6 -20.8°
Reaches altitude 10° 17:09:54 10° 203° (SSW) 2,448 4.8 -21.4°
Maximum altitude 17:15:29 69° 285° (WNW) 896 2.4 -22.8°
Drops below altitude 10° 17:21:04 10° 8° (N) 2,447 4.6 -24.2°
Sets 17:23:31 0° 11° (N) 3,381 5.3 -24.8°
